Time,TemperatureF,DewpointF,PressureIn,WindDirection,WindDirectionDegrees,WindSpeedMPH,WindSpeedGustMPH,Humidity,HourlyPrecipIn,Conditions,Clouds,dailyrainin,SoftwareType,DateUTC
2013-03-19 00:02:00,42.0,10.0,-100.00,SSE,150,3.0,20.0,26,0.00,,,-99.99,,2013-03-19 06:02:00,
2013-03-19 00:12:00,42.0,11.0,-100.00,SSE,160,4.0,9.0,27,0.00,,,-99.99,,2013-03-19 06:12:00,
2013-03-19 00:21:00,42.0,10.0,-100.00,South,170,0.0,9.0,27,0.00,,,-99.99,,2013-03-19 06:21:00,
2013-03-19 00:32:00,41.0,10.0,-100.00,SW,215,1.0,3.0,27,0.00,,,-99.99,,2013-03-19 06:32:00,
2013-03-19 00:42:00,41.0,10.0,-100.00,South,180,1.0,3.0,27,0.00,,,-99.99,,2013-03-19 06:42:00,
2013-03-19 00:52:00,41.0,11.0,-100.00,NE,45,4.0,7.0,29,0.00,,,-99.99,,2013-03-19 06:52:00,
2013-03-19 01:01:00,41.0,11.0,-100.00,SE,140,1.0,5.0,29,0.00,,,-99.99,,2013-03-19 07:01:00,
2013-03-19 01:12:00,40.0,11.0,-100.00,NE,35,1.0,4.0,30,0.00,,,-99.99,,2013-03-19 07:12:00,
2013-03-19 01:21:00,39.0,11.0,-100.00,WNW,300,0.0,1.0,30,0.00,,,-99.99,,2013-03-19 07:21:00,
2013-03-19 01:32:00,38.0,12.0,-100.00,South,190,1.0,2.0,32,0.00,,,-99.99,,2013-03-19 07:32:00,
2013-03-19 01:42:00,38.0,12.0,-100.00,North,0,0.0,2.0,34,0.00,,,-99.99,,2013-03-19 07:42:00,
2013-03-19 01:52:00,37.0,12.0,-100.00,North,5,0.0,1.0,35,0.00,,,-99.99,,2013-03-19 07:52:00,
2013-03-19 02:02:00,36.0,12.0,-100.00,West,275,0.0,2.0,36,0.00,,,-99.99,,2013-03-19 08:02:00,
2013-03-19 02:11:00,35.0,13.0,-100.00,SSW,195,0.0,2.0,38,0.00,,,-99.99,,2013-03-19 08:11:00,
2013-03-19 02:22:00,35.0,13.0,-100.00,WNW,295,1.0,2.0,40,0.00,,,-99.99,,2013-03-19 08:22:00,
2013-03-19 02:32:00,35.0,14.0,-100.00,North,5,1.0,2.0,42,0.00,,,-99.99,,2013-03-19 08:32:00,
2013-03-19 02:41:00,34.0,14.0,-100.00,South,170,1.0,2.0,43,0.00,,,-99.99,,2013-03-19 08:41:00,
2013-03-19 02:52:00,33.0,15.0,-100.00,NE,40,0.0,1.0,46,0.00,,,-99.99,,2013-03-19 08:52:00,
2013-03-19 03:02:00,33.0,15.0,-100.00,ENE,65,0.0,1.0,47,0.00,,,-99.99,,2013-03-19 09:02:00,
2013-03-19 03:12:00,33.0,16.0,-100.00,SSW,205,0.0,2.0,48,0.00,,,-99.99,,2013-03-19 09:12:00,
2013-03-19 03:22:00,32.0,16.0,-100.00,ESE,120,1.0,2.0,49,0.00,,,-99.99,,2013-03-19 09:22:00,
2013-03-19 03:32:00,32.0,16.0,-100.00,North,350,0.0,2.0,50,0.00,,,-99.99,,2013-03-19 09:32:00,
2013-03-19 03:42:00,32.0,16.0,-100.00,SSW,195,0.0,0.0,51,0.00,,,-99.99,,2013-03-19 09:42:00,
2013-03-19 03:52:00,32.0,17.0,-100.00,NNE,20,0.0,1.0,52,0.00,,,-99.99,,2013-03-19 09:52:00,
2013-03-19 04:03:00,31.0,17.0,-100.00,SSE,160,0.0,1.0,53,0.00,,,-99.99,,2013-03-19 10:03:00,
2013-03-19 04:12:00,32.0,17.0,-100.00,SSE,165,0.0,4.0,54,0.00,,,-99.99,,2013-03-19 10:12:00,
2013-03-19 04:22:00,32.0,18.0,-100.00,NNE,30,0.0,2.0,55,0.00,,,-99.99,,2013-03-19 10:22:00,
2013-03-19 04:32:00,31.0,18.0,-100.00,NE,45,0.0,2.0,56,0.00,,,-99.99,,2013-03-19 10:32:00,
2013-03-19 04:42:00,31.0,18.0,-100.00,SW,215,1.0,2.0,57,0.00,,,-99.99,,2013-03-19 10:42:00,
2013-03-19 04:52:00,31.0,18.0,-100.00,SSE,165,0.0,3.0,57,0.00,,,-99.99,,2013-03-19 10:52:00,
2013-03-19 05:02:00,32.0,19.0,-100.00,South,175,0.0,4.0,58,0.00,,,-99.99,,2013-03-19 11:02:00,
2013-03-19 05:11:00,32.0,19.0,-100.00,North,0,1.0,4.0,57,0.00,,,-99.99,,2013-03-19 11:11:00,
2013-03-19 05:22:00,31.0,19.0,-100.00,ESE,110,0.0,4.0,58,0.00,,,-99.99,,2013-03-19 11:22:00,
2013-03-19 05:32:00,31.0,19.0,-100.00,WNW,300,1.0,4.0,58,0.00,,,-99.99,,2013-03-19 11:32:00,
2013-03-19 05:42:00,33.0,19.0,-100.00,West,265,1.0,4.0,57,0.00,,,-99.99,,2013-03-19 11:42:00,
2013-03-19 05:52:00,32.0,19.0,-100.00,East,100,0.0,2.0,56,0.00,,,-99.99,,2013-03-19 11:52:00,
2013-03-19 06:02:00,32.0,18.0,-100.00,SE,145,0.0,2.0,56,0.00,,,-99.99,,2013-03-19 12:02:00,
2013-03-19 06:12:00,32.0,18.0,-100.00,ENE,75,1.0,3.0,56,0.00,,,-99.99,,2013-03-19 12:12:00,
2013-03-19 06:22:00,32.0,19.0,-100.00,NE,40,2.0,4.0,57,0.00,,,-99.99,,2013-03-19 12:22:00,
2013-03-19 06:32:00,33.0,19.0,-100.00,SE,130,0.0,4.0,55,0.00,,,-99.99,,2013-03-19 12:32:00,
2013-03-19 06:42:00,33.0,19.0,-100.00,North,355,1.0,3.0,54,0.00,,,-99.99,,2013-03-19 12:42:00,
2013-03-19 06:51:00,33.0,19.0,-100.00,NE,35,2.0,5.0,54,0.00,,,-99.99,,2013-03-19 12:51:00,
2013-03-19 07:02:00,34.0,19.0,-100.00,NW,320,2.0,5.0,53,0.00,,,-99.99,,2013-03-19 13:02:00,
2013-03-19 07:11:00,33.0,18.0,-100.00,NW,325,1.0,3.0,53,0.00,,,-99.99,,2013-03-19 13:11:00,
2013-03-19 07:22:00,33.0,18.0,-100.00,NW,305,0.0,0.0,53,0.00,,,-99.99,,2013-03-19 13:22:00,
2013-03-19 07:32:00,33.0,18.0,-100.00,NW,310,1.0,3.0,54,0.00,,,-99.99,,2013-03-19 13:32:00,
2013-03-19 07:42:00,32.0,18.0,-100.00,SE,140,0.0,2.0,56,0.00,,,-99.99,,2013-03-19 13:42:00,
2013-03-19 07:52:00,32.0,19.0,-100.00,NW,325,1.0,4.0,57,0.00,,,-99.99,,2013-03-19 13:52:00,
2013-03-19 08:01:00,32.0,19.0,-100.00,South,170,0.0,4.0,57,0.00,,,-99.99,,2013-03-19 14:01:00,
2013-03-19 08:12:00,32.0,19.0,-100.00,NE,40,2.0,3.0,58,0.00,,,-99.99,,2013-03-19 14:12:00,
2013-03-19 08:21:00,32.0,19.0,-100.00,SSW,195,0.0,2.0,58,0.00,,,-99.99,,2013-03-19 14:21:00,
2013-03-19 08:32:00,32.0,19.0,-100.00,South,190,0.0,0.0,58,0.00,,,-99.99,,2013-03-19 14:32:00,
2013-03-19 08:42:00,33.0,20.0,-100.00,SSE,160,0.0,1.0,58,0.00,,,-99.99,,2013-03-19 14:42:00,
2013-03-19 08:51:00,33.0,20.0,-100.00,South,175,0.0,0.0,58,0.00,,,-99.99,,2013-03-19 14:51:00,
2013-03-19 09:02:00,34.0,21.0,-100.00,South,170,1.0,1.0,58,0.00,,,-99.99,,2013-03-19 15:02:00,
2013-03-19 09:11:00,35.0,21.0,-100.00,NNW,340,2.0,5.0,55,0.00,,,-99.99,,2013-03-19 15:11:00,
2013-03-19 09:21:00,36.0,20.0,-100.00,SSW,195,2.0,3.0,52,0.00,,,-99.99,,2013-03-19 15:21:00,
2013-03-19 09:33:00,37.0,21.0,-100.00,South,180,1.0,3.0,51,0.00,,,-99.99,,2013-03-19 15:33:00,
2013-03-19 09:43:00,39.0,21.0,-100.00,South,190,2.0,3.0,47,0.00,,,-99.99,,2013-03-19 15:43:00,
2013-03-19 09:52:00,40.0,20.0,-100.00,South,180,1.0,3.0,45,0.00,,,-99.99,,2013-03-19 15:52:00,
2013-03-19 10:03:00,41.0,20.0,-100.00,South,170,1.0,4.0,43,0.00,,,-99.99,,2013-03-19 16:03:00,
2013-03-19 10:12:00,42.0,20.0,-100.00,SSW,200,2.0,3.0,41,0.00,,,-99.99,,2013-03-19 16:12:00,
2013-03-19 10:23:00,42.0,19.0,-100.00,South,180,2.0,4.0,40,0.00,,,-99.99,,2013-03-19 16:23:00,
2013-03-19 10:33:00,43.0,20.0,-100.00,SSE,165,2.0,4.0,39,0.00,,,-99.99,,2013-03-19 16:33:00,
2013-03-19 10:43:00,44.0,17.0,-100.00,SSE,155,3.0,6.0,34,0.00,,,-99.99,,2013-03-19 16:43:00,
2013-03-19 10:53:00,46.0,15.0,-100.00,SSE,160,2.0,6.0,28,0.00,,,-99.99,,2013-03-19 16:53:00,
2013-03-19 11:02:00,46.0,12.0,-100.00,NE,40,4.0,7.0,25,0.00,,,-99.99,,2013-03-19 17:02:00,
2013-03-19 11:13:00,47.0,10.0,-100.00,SSE,160,3.0,9.0,22,0.00,,,-99.99,,2013-03-19 17:13:00,
2013-03-19 11:23:00,47.0,8.0,-100.00,SSE,155,5.0,9.0,19,0.00,,,-99.99,,2013-03-19 17:23:00,
2013-03-19 11:34:00,48.0,8.0,-100.00,SE,145,3.0,6.0,18,0.00,,,-99.99,,2013-03-19 17:34:00,
2013-03-19 11:43:00,48.0,6.0,-100.00,South,190,2.0,6.0,17,0.00,,,-99.99,,2013-03-19 17:43:00,
2013-03-19 11:52:00,49.0,5.0,-100.00,SE,145,2.0,6.0,16,0.00,,,-99.99,,2013-03-19 17:52:00,
2013-03-19 12:02:00,49.0,4.0,-100.00,SE,145,1.0,7.0,15,0.00,,,-99.99,,2013-03-19 18:02:00,
2013-03-19 12:13:00,49.0,3.0,-100.00,ESE,110,6.0,8.0,14,0.00,,,-99.99,,2013-03-19 18:13:00,
2013-03-19 12:23:00,49.0,2.0,-100.00,NE,55,6.0,11.0,14,0.00,,,-99.99,,2013-03-19 18:23:00,
2013-03-19 12:33:00,50.0,3.0,-100.00,SSE,160,2.0,9.0,14,0.00,,,-99.99,,2013-03-19 18:33:00,
2013-03-19 12:42:00,50.0,1.0,-100.00,SE,140,4.0,6.0,12,0.00,,,-99.99,,2013-03-19 18:42:00,
2013-03-19 12:52:00,51.0,1.0,-100.00,SSE,155,4.0,9.0,12,0.00,,,-99.99,,2013-03-19 18:52:00,
2013-03-19 13:02:00,50.0,-1.0,-100.00,SSE,155,6.0,11.0,11,0.00,,,-99.99,,2013-03-19 19:02:00,
2013-03-19 13:12:00,50.0,-3.0,-100.00,SE,135,4.0,16.0,10,0.00,,,-99.99,,2013-03-19 19:12:00,
2013-03-19 13:22:00,50.0,-3.0,-100.00,ESE,115,5.0,10.0,10,0.00,,,-99.99,,2013-03-19 19:22:00,
2013-03-19 13:32:00,51.0,-2.0,-100.00,ESE,120,6.0,10.0,10,0.00,,,-99.99,,2013-03-19 19:32:00,
2013-03-19 13:42:00,51.0,-3.0,-100.00,SE,135,2.0,12.0,10,0.00,,,-99.99,,2013-03-19 19:42:00,
2013-03-19 13:52:00,51.0,-3.0,-100.00,SSE,150,6.0,11.0,10,0.00,,,-99.99,,2013-03-19 19:52:00,
2013-03-19 14:02:00,51.0,-3.0,-100.00,SSE,150,4.0,10.0,10,0.00,,,-99.99,,2013-03-19 20:02:00,
2013-03-19 14:11:00,52.0,-3.0,-100.00,South,185,4.0,16.0,10,0.00,,,-99.99,,2013-03-19 20:11:00,
2013-03-19 14:22:00,53.0,-2.0,-100.00,SSE,150,4.0,9.0,10,0.00,,,-99.99,,2013-03-19 20:22:00,
2013-03-19 14:32:00,53.0,-3.0,-100.00,South,170,7.0,12.0,9,0.00,,,-99.99,,2013-03-19 20:32:00,
2013-03-19 14:42:00,52.0,-3.0,-100.00,SSE,160,5.0,12.0,9,0.00,,,-99.99,,2013-03-19 20:42:00,
2013-03-19 14:52:00,52.0,-3.0,-100.00,NE,50,5.0,14.0,9,0.00,,,-99.99,,2013-03-19 20:52:00,
2013-03-19 15:01:00,52.0,-3.0,-100.00,SSE,155,9.0,17.0,9,0.00,,,-99.99,,2013-03-19 21:01:00,
2013-03-19 15:11:00,52.0,-3.0,-100.00,SE,125,9.0,14.0,10,0.00,,,-99.99,,2013-03-19 21:11:00,
2013-03-19 15:22:00,53.0,-2.0,-100.00,SE,130,2.0,14.0,9,0.00,,,-99.99,,2013-03-19 21:22:00,
2013-03-19 15:33:00,52.0,-3.0,-100.00,ESE,105,5.0,11.0,10,0.00,,,-99.99,,2013-03-19 21:33:00,
2013-03-19 15:42:00,52.0,-3.0,-100.00,SE,140,3.0,8.0,10,0.00,,,-99.99,,2013-03-19 21:42:00,
2013-03-19 15:52:00,52.0,-3.0,-100.00,East,95,7.0,14.0,10,0.00,,,-99.99,,2013-03-19 21:52:00,
2013-03-19 16:02:00,52.0,-3.0,-100.00,NE,50,4.0,11.0,10,0.00,,,-99.99,,2013-03-19 22:02:00,
2013-03-19 16:12:00,51.0,-3.0,-100.00,ESE,110,2.0,12.0,10,0.00,,,-99.99,,2013-03-19 22:12:00,
2013-03-19 16:22:00,52.0,-3.0,-100.00,South,170,1.0,10.0,10,0.00,,,-99.99,,2013-03-19 22:22:00,
2013-03-19 16:32:00,51.0,-4.0,-100.00,SSE,165,6.0,13.0,10,0.00,,,-99.99,,2013-03-19 22:32:00,
2013-03-19 16:43:00,50.0,-4.0,-100.00,SSE,165,6.0,13.0,10,0.00,,,-99.99,,2013-03-19 22:43:00,
2013-03-19 16:52:00,50.0,-5.0,-100.00,SSE,160,4.0,10.0,10,0.00,,,-99.99,,2013-03-19 22:52:00,
2013-03-19 17:02:00,49.0,-5.0,-100.00,SE,145,7.0,14.0,9,0.00,,,-99.99,,2013-03-19 23:02:00,
2013-03-19 17:12:00,49.0,-5.0,-100.00,SSE,160,3.0,12.0,9,0.00,,,-99.99,,2013-03-19 23:12:00,
2013-03-19 17:21:00,49.0,-5.0,-100.00,SSE,155,6.0,12.0,10,0.00,,,-99.99,,2013-03-19 23:21:00,
2013-03-19 17:32:00,49.0,-6.0,-100.00,SSE,160,5.0,13.0,9,0.00,,,-99.99,,2013-03-19 23:32:00,
2013-03-19 17:42:00,48.0,-6.0,-100.00,South,185,4.0,12.0,10,0.00,,,-99.99,,2013-03-19 23:42:00,
2013-03-19 17:51:00,48.0,-6.0,-100.00,SSE,155,2.0,7.0,10,0.00,,,-99.99,,2013-03-19 23:51:00,
2013-03-19 18:02:00,48.0,-6.0,-100.00,SE,140,4.0,15.0,10,0.00,,,-99.99,,2013-03-20 00:02:00,
2013-03-19 18:12:00,48.0,-6.0,-100.00,South,185,6.0,13.0,10,0.00,,,-99.99,,2013-03-20 00:12:00,
2013-03-19 18:22:00,47.0,-6.0,-100.00,SE,135,1.0,12.0,10,0.00,,,-99.99,,2013-03-20 00:22:00,
2013-03-19 18:32:00,47.0,-6.0,-100.00,SSE,155,4.0,9.0,10,0.00,,,-99.99,,2013-03-20 00:32:00,
2013-03-19 18:42:00,47.0,-7.0,-100.00,SW,215,3.0,10.0,10,0.00,,,-99.99,,2013-03-20 00:42:00,
2013-03-19 18:52:00,47.0,-7.0,-100.00,South,180,1.0,7.0,9,0.00,,,-99.99,,2013-03-20 00:52:00,
2013-03-19 19:12:00,47.0,-7.0,-100.00,SE,135,1.0,6.0,9,0.00,,,-99.99,,2013-03-20 01:12:00,
2013-03-19 19:21:00,46.0,-7.0,-100.00,NNW,340,2.0,8.0,10,0.00,,,-99.99,,2013-03-20 01:21:00,
2013-03-19 19:32:00,46.0,-7.0,-100.00,South,175,2.0,9.0,10,0.00,,,-99.99,,2013-03-20 01:32:00,
2013-03-19 19:42:00,46.0,-8.0,-100.00,NW,310,2.0,7.0,9,0.00,,,-99.99,,2013-03-20 01:42:00,
2013-03-19 19:52:00,45.0,-8.0,-100.00,NW,320,4.0,6.0,10,0.00,,,-99.99,,2013-03-20 01:52:00,
2013-03-19 20:02:00,44.0,-9.0,-100.00,NNW,340,4.0,6.0,10,0.00,,,-99.99,,2013-03-20 02:02:00,
2013-03-19 20:11:00,44.0,-7.0,-100.00,NNE,25,2.0,7.0,11,0.00,,,-99.99,,2013-03-20 02:11:00,
2013-03-19 20:21:00,42.0,-5.0,-100.00,NW,315,1.0,4.0,13,0.00,,,-99.99,,2013-03-20 02:21:00,
2013-03-19 20:32:00,41.0,-3.0,-100.00,NW,325,2.0,4.0,14,0.00,,,-99.99,,2013-03-20 02:32:00,
2013-03-19 20:42:00,41.0,-2.0,-100.00,NNW,340,3.0,4.0,16,0.00,,,-99.99,,2013-03-20 02:42:00,
2013-03-19 20:52:00,39.0,-1.0,-100.00,SSE,160,0.0,4.0,18,0.00,,,-99.99,,2013-03-20 02:52:00,
2013-03-19 21:01:00,38.0,1.0,-100.00,North,350,2.0,4.0,19,0.00,,,-99.99,,2013-03-20 03:01:00,
2013-03-19 21:12:00,37.0,1.0,-100.00,South,185,0.0,3.0,21,0.00,,,-99.99,,2013-03-20 03:12:00,
2013-03-19 21:21:00,36.0,2.0,-100.00,South,185,1.0,3.0,23,0.00,,,-99.99,,2013-03-20 03:21:00,
2013-03-19 21:33:00,35.0,3.0,-100.00,South,180,0.0,3.0,25,0.00,,,-99.99,,2013-03-20 03:33:00,
2013-03-19 21:42:00,35.0,4.0,-100.00,SSE,150,0.0,4.0,27,0.00,,,-99.99,,2013-03-20 03:42:00,
2013-03-19 21:52:00,34.0,5.0,-100.00,SW,225,0.0,4.0,29,0.00,,,-99.99,,2013-03-20 03:52:00,
2013-03-19 22:02:00,34.0,6.0,-100.00,SE,145,1.0,4.0,29,0.00,,,-99.99,,2013-03-20 04:02:00,
2013-03-19 22:12:00,35.0,6.0,-100.00,WSW,255,0.0,6.0,30,0.00,,,-99.99,,2013-03-20 04:12:00,
2013-03-19 22:22:00,33.0,7.0,-100.00,NE,50,0.0,1.0,32,0.00,,,-99.99,,2013-03-20 04:22:00,
2013-03-19 22:32:00,33.0,7.0,-100.00,North,0,1.0,4.0,32,0.00,,,-99.99,,2013-03-20 04:32:00,
2013-03-19 22:42:00,33.0,7.0,-100.00,WSW,245,0.0,2.0,32,0.00,,,-99.99,,2013-03-20 04:42:00,
2013-03-19 22:52:00,33.0,7.0,-100.00,SW,225,0.0,2.0,32,0.00,,,-99.99,,2013-03-20 04:52:00,
2013-03-19 23:02:00,33.0,7.0,-100.00,SSW,205,1.0,3.0,33,0.00,,,-99.99,,2013-03-20 05:02:00,
2013-03-19 23:12:00,32.0,7.0,-100.00,SE,125,0.0,1.0,34,0.00,,,-99.99,,2013-03-20 05:12:00,
2013-03-19 23:22:00,31.0,8.0,-100.00,SE,145,0.0,2.0,36,0.00,,,-99.99,,2013-03-20 05:22:00,
2013-03-19 23:32:00,31.0,8.0,-100.00,NNE,15,0.0,3.0,37,0.00,,,-99.99,,2013-03-20 05:32:00,
2013-03-19 23:42:00,31.0,8.0,-100.00,East,100,0.0,1.0,38,0.00,,,-99.99,,2013-03-20 05:42:00,
2013-03-19 23:52:00,30.0,8.0,-100.00,East,80,0.0,1.0,39,0.00,,,-99.99,,2013-03-20 05:52:00,